Terminal Aerodrome Forecast
Issued by NWS Mt. Holly, NJ

Home | Current Version | Previous Version | Text Only | Print | Product List | Glossary On
Versions: 1 2 3 4 5 6 7 8 9 10 11 12 13 14 15 16 17 18 19 20 21 22 23 24 25 26 27 28 29 30 31 32 33
000
FTUS41 KPHI 251400 AAA
TAFPHL
TAF AMD
KPHL 251400Z 2514/2618 07008G16KT 6SM -RA BR OVC008
      TEMPO 2514/2517 3SM RA BR OVC006
     FM251700 24006KT P6SM VCSH OVC010
     FM251900 24005KT P6SM BKN020
     FM252300 27004KT P6SM BKN035
     FM260700 31005KT P6SM OVC200=

USA.gov is the U.S. government's official web portal to all federal, state and local government web resources and services.